[keps] orb10301.2l.amsat

Ray Hoad ray.hoad at mypbmail.com
Thu Oct 28 18:14:39 PDT 2010


SB KEPS @ AMSAT  $ORB10301.N
2Line Orbital Elements 10301.AMSAT

HR AMSAT ORBITAL ELEMENTS FOR AMATEUR SATELLITES IN NASA FORMAT
FROM WA5QGD FORT WORTH,TX October 28, 2010
BID: ORB10301.N

DECODE 2-LINE ELSETS WITH THE FOLLOWING KEY:
1 AAAAAU 00  0  0 BBBBB.BBBBBBBB  .CCCCCCCC  00000-0  00000-0 0  DDDZ
2 AAAAA EEE.EEEE FFF.FFFF GGGGGGG HHH.HHHH III.IIII JJ.JJJJJJJJKKKKKZ
KEY: A-CATALOGNUM B-EPOCHTIME C-DECAY D-ELSETNUM E-INCLINATION F-RAAN
G-ECCENTRICITY H-ARGPERIGEE I-MNANOM J-MNMOTION K-ORBITNUM Z-CHECKSUM

TO ALL RADIO AMATEURS BT

AO-07
1 07530U 74089B   10300.92040442 -.00000027  00000-0  10000-3 0 09165
2 07530 101.3997 311.6254 0012253 014.5401 345.6017 12.53580038645081
FO-29
1 24278U 96046B   10301.66195490  .00000024  00000-0  57446-4 0  4253
2 24278 098.5182 112.3778 0351102 137.5077 225.3818 13.52953723701152
SO-33
1 25509U 98061B   10301.54597441  .00000218  00000-0  32855-4 0  8244
2 25509 031.4315 114.3559 0352948 015.8890 345.2447 14.28335354627136
RS-22
1 27939U 03042A   10301.65619874  .00000183  00000-0  44064-4 0  6722
2 27939 097.8698 161.3365 0013717 002.7032 357.4242 14.63469045378475
VO-52
1 28650U 05017B   10301.70204233  .00000454  00000-0  63624-4 0  6322
2 28650 097.6762 349.8118 0026562 197.3803 162.6532 14.81837321296466
SO-67
1 35870U 09049F   10301.67472727  .00001289  00000-0  60891-4 0  2364
2 35870 097.3156 347.1675 0003451 019.6355 126.6882 15.21143251 61747
HO-68
1 36122U 09072B   10301.64238573 -.00000045  00000-0  00000 0 0  7969
2 36122 100.4535 000.6218 0007783 035.2249 324.9379 13.16282371 41771
UO-11
1 14781U 84021B   10300.75342183  .00000030  00000-0  11031-4 0 03765
2 14781 098.0390 352.7764 0009147 164.1572 195.9905 14.79849878431419
AO-16
1 20439U 90005D   10301.79742930  .00000042  00000-0  31108-4 0   295
2 20439 098.3505 254.5613 0011591 126.5263 233.6991 14.31880226 84503
LO-19
1 20442U 90005G   10301.84364414  .00000038  00000-0  29355-4 0  9398
2 20442 098.3130 259.8718 0012739 121.7305 238.5120 14.32109553 84689
AO-27
1 22825U 93061C   10300.88085828  .00000080  00000-0  48128-4 0 06610
2 22825 098.5011 245.4900 0007541 237.7447 122.3019 14.29313392891003
IO-26
1 22826U 93061D   10300.85250134  .00000032  00000-0  29116-4 0  3982
2 22826 098.4953 246.0154 0008201 230.3980 129.6488 14.29571112891119
GO-32
1 25397U 98043D   10300.55590535 -.00000016  00000-0  10879-4 0 03194
2 25397 098.3167 300.7409 0000534 188.0784 172.0411 14.23187859638879
NO-44
1 26931U 01043C   10300.84842831  .00000135  00000-0  84806-4 0  5929
2 26931 067.0530 222.1739 0005628 270.3188 089.7249 14.29618257473716
SO-50
1 27607U 02058C   10301.61448115  .00000083  00000-0  34786-4 0  3045
2 27607 064.5581 311.2303 0045303 021.9147 338.3881 14.71594408422011
CO-55
1 27844U 03031E   10301.55293538  .00000112  00000-0  72257-4 0  9662
2 27844 098.7101 308.6233 0009948 142.0283 218.1605 14.20740927380020
CO-57
1 27848U 03031J   10300.75686843  .00000118  00000-0  75342-4 0  9138
2 27848 098.7155 306.9596 0009645 148.6384 211.5372 14.20530353379862
AO-51
1 28375U 04025K   10300.94023427  .00000050  00000-0  27588-4 0 08113
2 28375 098.0736 286.9628 0085106 054.4338 306.4756 14.40705608332620
GENESAT1
1 29655U 06058C   10216.61700559  .10637092  69904-5  33715-3 0  2265
2 29655 040.0059 067.3006 0005079 297.8744 064.7087 16.44862838207776
CP3
1 31129U 07012N   10300.63669984  .00000015  00000-0  14053-4 0 07093
2 31129 097.9263 333.0318 0102126 182.3873 177.6838 14.52322383187086
CO-65
1 32785U 08021C   10301.67366295  .00000334  00000-0  48947-4 0  8215
2 32785 097.8809 004.6466 0014376 206.9398 153.1121 14.81748048135257
KKS-1
1 33493U 09002B   10301.75172471  .00000952  00000-0  12911-3 0  9850
2 33493 098.1007 062.5093 0021083 070.5071 289.8420 14.81170834 95259
SOHLA-1
1 33496U 09002E   10300.73359219  .00000096  00000-0  24465-4 0  2408
2 33496 098.0687 048.1604 0007031 134.3738 225.8068 14.69527050 94348
TISAT-1
1 36799U 10035E   10301.70188725  .00000631  00000-0  90161-4 0  2596
2 36799 098.1338 002.3570 0014505 307.8039 052.1857 14.80211629 16065
STUDSAT
1 36801U 10035G   10300.79422610  .00001596  00000-0  21925-3 0   839
2 36801 098.1361 001.3424 0013334 299.1348 060.8530 14.79751442 15925
NOAA-10
1 16969U 86073A   10301.19533156 -.00000013  00000-0  12540-4 0  2559
2 16969 098.6449 328.8448 0012052 179.6802 180.4383 14.27431489254554
NOAA-11
1 19531U 88089A   10301.32459719 -.00000177  00000-0 -69101-4 0  2639
2 19531 098.7663 028.0589 0012033 125.5519 234.6786 14.14938940139966
NOAA-12
1 21263U 91032A   10301.27793802  .00000089  00000-0  56285-4 0  7582
2 21263 098.7632 314.4112 0012900 136.9840 223.2349 14.25662967 11364
MET-3/5
1 21655U 91056A   10300.66984241  .00000051  00000-0  10000-3 0  9499
2 21655 082.5598 215.0253 0014323 023.0476 337.1309 13.17023411923116
MET-2/21
1 22782U 93055A   10301.56527721  .00000033  00000-0  16695-4 0  9237
2 22782 082.5456 146.6447 0023286 031.6473 328.6083 13.83649386866528
OKEAN-4
1 23317U 94066A   10300.78356349  .00000433  00000-0  50247-4 0 03783
2 23317 082.5420 230.0830 0022387 160.3763 199.8340 14.82883751866105
NOAA-14
1 23455U 94089A   10301.33339575  .00000012  00000-0  29532-4 0  2465
2 23455 098.8710 021.0921 0008786 214.7116 145.3509 14.13798260816317
NOAA-15
1 25338U 98030A   10301.29622088  .00000039  00000-0  35343-4 0  5746
2 25338 098.6330 285.9285 0011477 050.6187 309.6026 14.24862396647703
RESURS
1 25394U 98043A   10301.55068627  .00000020  00000-0  26303-4 0  6370
2 25394 098.3016 312.3536 0001164 146.4263 213.6987 14.24213701639338
FENGYUN1
1 25730U 99025A   10300.81238445  .00001109  00000-0  67178-3 0 01727
2 25730 098.7976 262.3871 0020422 253.2793 106.6146 14.08359604590351
OKEAN-0
1 25860U 99039A   10300.88815886  .00000154  00000-0  31058-4 0 01350
2 25860 097.8512 269.2070 0001685 053.9009 306.2361 14.73675846606449
NOAA-16
1 26536U 00055A   10301.53194052  .00000237  00000-0  15326-3 0   506
2 26536 099.1640 322.1099 0010070 326.3961 033.6569 14.12583853520657
NOAA-17
1 27453U 02032A   10301.34155174  .00000013  00000-0  23508-4 0   406
2 27453 098.4151 346.3131 0012727 107.3453 252.9128 14.24202947433659
NOAA-18
1 28654U 05018A   10301.36432412 -.00000103  00000-0 -31919-4 0  5303
2 28654 098.9662 247.3312 0015092 040.2479 319.9812 14.11400503280228
NOAA-19
1 33591U 09005A   10301.38136714  .00000371  00000-0  22996-3 0  7263
2 33591 098.8010 240.7398 0013292 273.0538 086.9107 14.11098688 88695
HUBBLE
1 20580U 90037B   10300.09759300  .00000718  00000-0  41998-4 0  6685
2 20580 028.4686 098.6536 0003467 162.6448 197.4276 15.01074509924596
ISS
1 25544U 98067A   10301.84623521  .00031767  00000-0  24106-3 0  1662
2 25544 051.6474 266.7289 0008632 132.6333 310.7307 15.71999554684496
CO-58
1 28895U 05043F   10300.60165547  .00000369  00000-0  86177-4 0  7159
2 28895 097.9934 180.5463 0017073 227.9381 132.0357 14.59954611266305
FALCON
1 30776U 07006E   10300.46993658  .00001414  00000-0  10352-3 0 09534
2 30776 035.4348 321.0490 0001246 282.7568 077.3009 15.03908896199983
MAST
1 31126U 07012K   10300.59170137  .00000112  00000-0  35634-4 0  9977
2 31126 097.9226 335.6603 0094513 173.8627 186.3747 14.53634466187297
CAPE1
1 31130U 07012P   10301.80439860  .00000209  00000-0  58629-4 0   177
2 31130 097.9238 333.9598 0102991 179.0292 181.1061 14.52241003187051
COMPASS
1 32787U 08021E   10300.30551468  .00000902  00000-0  12019-3 0 08158
2 32787 097.8805 003.1487 0014976 212.8167 147.2110 14.82017970135063
AAUSAT2
1 32788U 08021F   10300.70054902  .00001289  00000-0  16819-3 0 08054
2 32788 097.8805 003.6959 0014721 212.0538 147.9794 14.82172615135136
DO-64
1 32789U 08021G   10300.82854032  .00001584  00000-0  20410-3 0  8229
2 32789 097.8881 004.4561 0015013 209.5738 150.4611 14.82392707135152
CO-66
1 32791U 08021J   10300.21252044  .00000830  00000-0  11168-3 0 08076
2 32791 097.8805 003.0527 0015125 212.5282 147.5042 14.81779055135003
RS-30
1 32953U 08025A   10301.50003976  .00000010  00000-0  00000 0 0  1691
2 32953 082.4995 306.7858 0018835 167.2759 192.8804 12.43008848110305
TACSAT-3
1 35001U 09028A   10301.80887240  .00008011  00000-0  17884-3 0  4176
2 35001 040.4539 130.6598 0023167 287.1305 072.6973 15.43331857 81275
PHARMSAT
1 35002U 09028B   10300.88231926  .00007498  00000-0  16544-3 0  3896
2 35002 040.4684 133.8541 0025963 282.9927 076.7988 15.43675952 81154
HAWKSAT1
1 35003U 09028C   10301.82163704  .00016719  00000-0  30700-3 0  4246
2 35003 040.4586 118.2740 0024359 308.6466 051.2171 15.48477087 81411
CP6
1 35004U 09028D   10301.78836223  .00021566  00000-0  37438-3 0  4224
2 35004 040.4608 116.2216 0023101 314.3606 045.5304 15.49983853 81426
AEROCUB3
1 35005U 09028E   10301.78343267  .00120483  00000-0  11109-2 0  5007
2 35005 040.4653 102.9801 0024051 340.5960 019.3915 15.66044514 81572
CASTOR
1 35694U 09038F   10230.44082147  .07179566  12689-4  99310-4 0  6559
2 35694 051.5930 222.0149 0004218 308.0851 053.0105 16.48877011 61107
METEOR-M
1 35865U 09049A   10301.62924063  .00000176  00000-0  10000-3 0  7824
2 35865 098.7424 354.3608 0002796 357.6691 002.4440 14.21832380 57685
RS-38
1 35869U 09049E   10301.72681636  .00000177  00000-0  10000-3 0  7961
2 35869 098.7406 354.4974 0005107 350.7588 009.3466 14.21991924 57701
/EX




More information about the Keps mailing list